Flag for Ecuador Weather past 2 weeks in Cuenca, Ecuador

Now
79 °F

Passing clouds.


Feels Like: 82 °F
Forecast: 47 / 67 °F
Wind: 8 mph from Southwest

Location: Guayaquil / Simon Bolivar

Current Time: Apr 1, 2015 at 5:47:16 AM

Latest Report: Apr 1, 2015 at 5:00 AM


Visibility: N/A

Pressure: 29.80 "Hg

Humidity: 79%

Dew point: 72 °F

Location of CuencaLocation

Historic Weather in Cuenca — Graph

°F

Cuenca temperature yesterday

Maximum temperature yesterday: 88 °F (at 1:00 PM)
Minimum temperature yesterday: 75 °F (at 1:00 AM)
Average temperature yesterday: 80 °F

Past Weeks' High & Low Weather Summary

 TemperatureHumidityPressure
High102 °F (Mar 24, 8:00 PM)94% (Mar 28, 11:00 PM)30.01 "Hg (Mar 28, 11:00 PM)
Low73 °F (Mar 17, 6:00 AM)37% (Mar 24, 8:00 PM)29.71 "Hg (Mar 31, 4:00 PM)
Average81 °F76%29.88 "Hg
* Reported Mar 17 5:00 AM — Apr 1 5:00 AM, Cuenca, Weather by CustomWeather, © 2015

Note: Actual official high and low records may vary slightly from our data, if they occured in-between our weather recording intervals... More about our weather records

Advertising

Cuenca weather history for previous 24 hours

 ConditionsComfort  
Time TempWeatherWind HumidityBarometerVisibility
5:00 AM
Wed, Apr 1
79 °FPassing clouds.8 mph79%29.80 "HgN/A
3:00 AM79 °FPassing clouds.6 mph84%29.83 "HgN/A
2:00 AM79 °FPassing clouds.7 mph79%29.83 "HgN/A
1:00 AM79 °FPartly cloudy.5 mph79%29.86 "HgN/A
11:00 PM
Tue, Mar 31
81 °FThunderstorms. Overcast.3 mph74%29.86 "HgN/A
10:00 PM81 °FThunderstorms. Overcast.3 mph74%29.86 "HgN/A
9:00 PM79 °FThunderstorms. Overcast.3 mph84%29.83 "HgN/A
7:00 PM81 °FThunderstorms. Overcast.No wind74%29.77 "HgN/A
5:00 PM86 °FBroken clouds.3 mph62%29.74 "HgN/A
4:00 PM88 °FBroken clouds.6 mph62%29.71 "HgN/A
2:00 PM88 °FScattered clouds.7 mph62%29.77 "HgN/A
1:00 PM88 °FBroken clouds.7 mph66%29.80 "HgN/A
11:00 AM86 °FScattered clouds.3 mph66%29.86 "HgN/A
10:00 AM82 °FBroken clouds.2 mph70%29.86 "HgN/A
9:00 AM81 °FScattered clouds.2 mph79%29.86 "HgN/A
8:00 AM77 °FScattered clouds.1 mph83%29.86 "HgN/A
7:00 AM75 °FLight rain. Partly sunny.No wind89%29.86 "HgN/A
6:00 AM75 °FLight rain. Mostly cloudy.No wind89%29.86 "Hg5 mi
5:00 AM75 °FLight rain. Mostly cloudy.5 mph89%29.86 "Hg5 mi
Weather by CustomWeather, © 2015

See weather overviewHow to use our weather pages